| time (UTC) | temp C | wind direction | speed KPH | gust KPH | rain 1hr cm | rain 24hr cm | rain mn cm | humidity % | barometer mb |
| 20260509035025 | 10 | 151 | 0.0 | 0.0 | 0.00 | 0.33 | 0.33 | 90 | 1012.9 |
| 20260509034025 | 10 | 150 | 0.0 | 1.6 | 0.03 | 0.33 | 0.33 | 89 | 1013.1 |
| 20260509033026 | 10 | 168 | 0.0 | 0.0 | 0.03 | 0.33 | 0.33 | 88 | 1013.0 |
| 20260509032025 | 10 | 168 | 0.0 | 0.0 | 0.03 | 0.33 | 0.33 | 88 | 1012.9 |
| 20260509030025 | 10 | 168 | 0.0 | 0.0 | 0.03 | 0.33 | 0.33 | 89 | 1013.1 |
| 20260509025024 | 10 | 168 | 0.0 | 1.6 | 0.03 | 0.33 | 0.33 | 87 | 1013.3 |
| 20260509024025 | 10 | 168 | 0.0 | 3.2 | 0.00 | 0.36 | 0.30 | 87 | 1013.4 |
| 20260509023025 | 10 | 164 | 0.0 | 1.6 | 0.00 | 0.36 | 0.30 | 87 | 1013.4 |
| 20260509022025 | 10 | 164 | 0.0 | 3.2 | 0.00 | 0.36 | 0.30 | 85 | 1013.1 |
| 20260509021025 | 10 | 160 | 0.0 | 0.0 | 0.00 | 0.36 | 0.30 | 85 | 1012.9 |
| 20260509020025 | 10 | 161 | 0.0 | 0.0 | 0.00 | 0.36 | 0.30 | 85 | 1012.8 |
| 20260509015025 | 10 | 160 | 0.0 | 0.0 | 0.00 | 0.36 | 0.30 | 84 | 1012.9 |
| 20260509014025 | 10 | 161 | 0.0 | 0.0 | 0.00 | 0.36 | 0.30 | 84 | 1012.9 |
| 20260509013025 | 10 | 161 | 1.6 | 3.2 | 0.00 | 0.36 | 0.30 | 85 | 1012.8 |
| 20260509012025 | 9 | 156 | 0.0 | 0.0 | 0.00 | 0.36 | 0.30 | 86 | 1012.7 |
| 20260509011025 | 9 | 272 | 0.0 | 0.0 | 0.00 | 0.36 | 0.30 | 88 | 1012.6 |
| 20260509010025 | 9 | 272 | 0.0 | 0.0 | 0.00 | 0.36 | 0.30 | 88 | 1012.6 |
| 20260509004025 | 10 | 273 | 0.0 | 0.0 | 0.00 | 0.36 | 0.30 | 89 | 1012.3 |
| 20260509003025 | 10 | 273 | 0.0 | 0.0 | 0.00 | 0.36 | 0.30 | 89 | 1012.3 |
| 20260509001026 | 10 | 272 | 0.0 | 0.0 | 0.00 | 0.36 | 0.30 | 89 | 1012.2 |
| 20260509000025 | 10 | 272 | 0.0 | 0.0 | 0.03 | 0.36 | 0.30 | 90 | 1012.1 |
| 20260508235025 | 10 | 273 | 0.0 | 0.0 | 0.03 | 0.36 | 0.30 | 90 | 1011.9 |
| 20260508234025 | 10 | 272 | 0.0 | 0.0 | 0.03 | 0.36 | 0.30 | 89 | 1011.7 |
| 20260508232025 | 10 | 272 | 0.0 | 1.6 | 0.08 | 0.36 | 0.30 | 87 | 1011.8 |
| 20260508225025 | 10 | 345 | 1.6 | 4.8 | 0.10 | 0.33 | 0.28 | 84 | 1011.8 |
| 20260508224025 | 10 | 312 | 3.2 | 11.3 | 0.10 | 0.33 | 0.28 | 83 | 1011.8 |
| 20260508223025 | 11 | 327 | 3.2 | 14.5 | 0.08 | 0.30 | 0.25 | 80 | 1011.9 |
| 20260508222024 | 12 | 349 | 1.6 | 4.8 | 0.05 | 0.28 | 0.23 | 79 | 1011.8 |
| 20260508221025 | 12 | 14 | 0.0 | 0.0 | 0.00 | 0.23 | 0.18 | 79 | 1011.7 |
| 20260508220024 | 12 | 14 | 0.0 | 1.6 | 0.00 | 0.23 | 0.18 | 76 | 1011.4 |
| 20260508215025 | 12 | 13 | 0.0 | 3.2 | 0.00 | 0.23 | 0.18 | 74 | 1011.3 |
| 20260508214025 | 12 | 127 | 0.0 | 0.0 | 0.00 | 0.23 | 0.18 | 77 | 1011.4 |
| 20260508213024 | 12 | 127 | 1.6 | 4.8 | 0.00 | 0.23 | 0.18 | 76 | 1011.4 |
| 20260508212025 | 12 | 164 | 1.6 | 3.2 | 0.00 | 0.23 | 0.18 | 74 | 1011.6 |
| 20260508211025 | 12 | 330 | 0.0 | 0.0 | 0.00 | 0.23 | 0.18 | 71 | 1011.6 |
| 20260508210025 | 12 | 271 | 0.0 | 0.0 | 0.00 | 0.23 | 0.18 | 74 | 1011.7 |
| 20260508205025 | 12 | 272 | 0.0 | 0.0 | 0.10 | 0.23 | 0.18 | 77 | 1011.7 |
| 20260508204025 | 12 | 272 | 0.0 | 1.6 | 0.10 | 0.23 | 0.18 | 77 | 1011.8 |
| 20260508203024 | 12 | 195 | 0.0 | 4.8 | 0.10 | 0.23 | 0.18 | 81 | 1011.9 |
| 20260508201025 | 12 | 229 | 0.0 | 4.8 | 0.10 | 0.23 | 0.18 | 81 | 1012.1 |
| 20260508200025 | 13 | 193 | 4.8 | 16.1 | 0.10 | 0.23 | 0.18 | 75 | 1012.3 |
| 20260508195025 | 14 | 222 | 1.6 | 11.3 | 0.00 | 0.13 | 0.08 | 59 | 1012.1 |
| 20260508194025 | 15 | 170 | 1.6 | 4.8 | 0.00 | 0.13 | 0.08 | 56 | 1011.9 |
| 20260508193025 | 15 | 321 | 1.6 | 11.3 | 0.00 | 0.13 | 0.08 | 55 | 1011.8 |
| 20260508192025 | 15 | 204 | 1.6 | 8.0 | 0.00 | 0.13 | 0.08 | 56 | 1012.0 |
| 20260508191025 | 14 | 340 | 3.2 | 12.9 | 0.00 | 0.13 | 0.08 | 54 | 1012.1 |
| 20260508190024 | 13 | 284 | 4.8 | 14.5 | 0.00 | 0.13 | 0.08 | 56 | 1012.3 |
| 20260508185025 | 13 | 296 | 4.8 | 11.3 | 0.00 | 0.13 | 0.08 | 59 | 1012.3 |
| 20260508184025 | 13 | 340 | 3.2 | 19.3 | 0.00 | 0.13 | 0.08 | 58 | 1012.5 |
| 20260508183025 | 13 | 201 | 1.6 | 11.3 | 0.00 | 0.13 | 0.08 | 59 | 1012.6 |
| 20260508182025 | 13 | 250 | 4.8 | 14.5 | 0.00 | 0.13 | 0.08 | 58 | 1012.6 |
| 20260508181025 | 13 | 318 | 3.2 | 9.7 | 0.00 | 0.13 | 0.08 | 60 | 1012.7 |
| 20260508180025 | 13 | 235 | 3.2 | 9.7 | 0.00 | 0.13 | 0.08 | 62 | 1012.7 |
| 20260508175024 | 12 | 25 | 1.6 | 12.9 | 0.00 | 0.13 | 0.08 | 65 | 1012.9 |
| 20260508173025 | 12 | 231 | 4.8 | 16.1 | 0.00 | 0.13 | 0.08 | 64 | 1013.2 |
| 20260508172025 | 12 | 264 | 3.2 | 20.9 | 0.00 | 0.13 | 0.08 | 60 | 1012.9 |
| 20260508171025 | 12 | 335 | 3.2 | 19.3 | 0.00 | 0.13 | 0.08 | 59 | 1012.8 |
| 20260508170025 | 12 | 310 | 4.8 | 11.3 | 0.00 | 0.13 | 0.08 | 59 | 1012.7 |
| 20260508165025 | 12 | 310 | 8.0 | 16.1 | 0.00 | 0.13 | 0.08 | 59 | 1012.7 |
| 20260508164025 | 12 | 303 | 4.8 | 12.9 | 0.00 | 0.13 | 0.08 | 62 | 1012.8 |
| 20260508163025 | 12 | 222 | 3.2 | 19.3 | 0.00 | 0.13 | 0.08 | 60 | 1013.1 |
| 20260508162025 | 12 | 283 | 8.0 | 19.3 | 0.00 | 0.13 | 0.08 | 58 | 1013.2 |
| 20260508161025 | 12 | 241 | 3.2 | 12.9 | 0.00 | 0.13 | 0.08 | 60 | 1013.2 |
| 20260508160025 | 12 | 303 | 6.4 | 12.9 | 0.00 | 0.13 | 0.08 | 58 | 1013.3 |
| 20260508155025 | 13 | 179 | 3.2 | 12.9 | 0.00 | 0.13 | 0.08 | 58 | 1013.3 |
| 20260508154025 | 13 | 159 | 3.2 | 9.7 | 0.00 | 0.13 | 0.08 | 61 | 1013.3 |
| 20260508153025 | 12 | 149 | 3.2 | 11.3 | 0.00 | 0.13 | 0.08 | 64 | 1013.2 |
| 20260508152025 | 12 | 208 | 3.2 | 12.9 | 0.00 | 0.13 | 0.08 | 63 | 1013.3 |
| 20260508151025 | 12 | 203 | 4.8 | 12.9 | 0.00 | 0.13 | 0.08 | 64 | 1013.4 |
| 20260508150025 | 11 | 163 | 1.6 | 8.0 | 0.00 | 0.13 | 0.08 | 72 | 1013.5 |
| 20260508144026 | 9 | 185 | 1.6 | 9.7 | 0.00 | 0.13 | 0.08 | 80 | 1013.7 |
| 20260508143025 | 8 | 310 | 3.2 | 9.7 | 0.00 | 0.13 | 0.08 | 82 | 1013.8 |
| 20260508142025 | 8 | 161 | 1.6 | 4.8 | 0.00 | 0.13 | 0.08 | 86 | 1013.8 |
| 20260508141025 | 7 | 206 | 1.6 | 4.8 | 0.00 | 0.13 | 0.08 | 89 | 1013.8 |
| 20260508135024 | 6 | 172 | 1.6 | 4.8 | 0.00 | 0.13 | 0.08 | 95 | 1013.6 |
| 20260508133024 | 5 | 182 | 0.0 | 0.0 | 0.00 | 0.13 | 0.08 | 95 | 1014.0 |
| 20260508131025 | 5 | 181 | 0.0 | 1.6 | 0.00 | 0.13 | 0.08 | 95 | 1014.2 |
| 20260508130025 | 5 | 177 | 0.0 | 1.6 | 0.00 | 0.13 | 0.08 | 95 | 1014.2 |
| 20260508124025 | 5 | 197 | 0.0 | 3.2 | 0.00 | 0.13 | 0.08 | 95 | 1014.1 |
| 20260508122025 | 5 | 196 | 0.0 | 0.0 | 0.00 | 0.13 | 0.08 | 96 | 1014.0 |
| 20260508121025 | 5 | 206 | 0.0 | 0.0 | 0.00 | 0.13 | 0.08 | 96 | 1014.0 |
| 20260508120025 | 5 | 231 | 0.0 | 3.2 | 0.03 | 0.13 | 0.08 | 96 | 1013.9 |
| 20260508115025 | 4 | 191 | 0.0 | 0.0 | 0.03 | 0.13 | 0.08 | 97 | 1013.7 |
| 20260508114024 | 4 | 262 | 0.0 | 0.0 | 0.03 | 0.13 | 0.08 | 96 | 1013.7 |
| 20260508112025 | 3 | 341 | 0.0 | 0.0 | 0.03 | 0.13 | 0.08 | 96 | 1013.6 |
| 20260508111025 | 3 | 359 | 0.0 | 0.0 | 0.03 | 0.13 | 0.08 | 96 | 1013.6 |
| 20260508110025 | 2 | 341 | 0.0 | 0.0 | 0.00 | 0.10 | 0.05 | 95 | 1013.7 |
| 20260508105025 | 2 | 341 | 0.0 | 0.0 | 0.00 | 0.10 | 0.05 | 95 | 1013.5 |
| 20260508104025 | 2 | 341 | 0.0 | 0.0 | 0.00 | 0.10 | 0.05 | 94 | 1013.4 |
| 20260508103024 | 3 | 341 | 0.0 | 0.0 | 0.00 | 0.10 | 0.05 | 94 | 1013.2 |
| 20260508102025 | 3 | 341 | 0.0 | 0.0 | 0.00 | 0.10 | 0.05 | 94 | 1013.1 |
| 20260508101025 | 3 | 341 | 0.0 | 0.0 | 0.00 | 0.10 | 0.05 | 95 | 1013.0 |
| 20260508100024 | 3 | 341 | 0.0 | 0.0 | 0.00 | 0.10 | 0.05 | 94 | 1013.0 |
| 20260508095025 | 3 | 341 | 0.0 | 0.0 | 0.00 | 0.10 | 0.05 | 95 | 1013.1 |
| 20260508094025 | 3 | 341 | 0.0 | 0.0 | 0.00 | 0.10 | 0.05 | 95 | 1013.1 |
| 20260508093025 | 3 | 359 | 0.0 | 0.0 | 0.00 | 0.10 | 0.05 | 94 | 1013.1 |
| 20260508092025 | 3 | 341 | 0.0 | 0.0 | 0.00 | 0.10 | 0.05 | 94 | 1013.2 |
| 20260508091025 | 3 | 341 | 0.0 | 0.0 | 0.00 | 0.10 | 0.05 | 94 | 1013.2 |
| 20260508090024 | 3 | 341 | 0.0 | 0.0 | 0.00 | 0.10 | 0.05 | 94 | 1013.2 |
| 20260508085025 | 3 | 341 | 0.0 | 0.0 | 0.00 | 0.10 | 0.05 | 94 | 1013.0 |
| 20260508084025 | 3 | 341 | 0.0 | 0.0 | 0.00 | 0.10 | 0.05 | 94 | 1013.0 |
| 20260508083025 | 3 | 341 | 0.0 | 0.0 | 0.00 | 0.10 | 0.05 | 94 | 1013.0 |
| 20260508082025 | 3 | 341 | 0.0 | 0.0 | 0.00 | 0.10 | 0.05 | 94 | 1012.9 |
| 20260508075025 | 3 | 341 | 0.0 | 0.0 | 0.00 | 0.10 | 0.05 | 93 | 1012.8 |
| 20260508074025 | 4 | 341 | 0.0 | 0.0 | 0.00 | 0.10 | 0.05 | 93 | 1012.9 |
| 20260508073024 | 4 | 341 | 0.0 | 0.0 | 0.00 | 0.10 | 0.05 | 93 | 1012.8 |
| 20260508072025 | 4 | 341 | 0.0 | 0.0 | 0.00 | 0.10 | 0.05 | 93 | 1012.8 |
| 20260508071025 | 4 | 341 | 0.0 | 0.0 | 0.00 | 0.10 | 0.05 | 93 | 1012.8 |
| 20260508065025 | 4 | 341 | 0.0 | 0.0 | 0.00 | 0.10 | 0.05 | 93 | 1012.8 |
| 20260508064025 | 5 | 341 | 0.0 | 0.0 | 0.00 | 0.10 | 0.05 | 92 | 1012.8 |
| 20260508063025 | 5 | 341 | 0.0 | 0.0 | 0.00 | 0.10 | 0.05 | 92 | 1012.9 |
| 20260508062025 | 5 | 341 | 0.0 | 0.0 | 0.00 | 0.10 | 0.05 | 92 | 1012.8 |
| 20260508061025 | 5 | 341 | 0.0 | 0.0 | 0.00 | 0.10 | 0.05 | 92 | 1012.8 |
| 20260508060025 | 5 | 341 | 0.0 | 0.0 | 0.00 | 0.10 | 0.05 | 92 | 1012.8 |
| 20260508054025 | 5 | 341 | 0.0 | 0.0 | 0.00 | 0.10 | 0.05 | 91 | 1012.8 |
| 20260508052025 | 5 | 341 | 0.0 | 0.0 | 0.05 | 0.10 | 0.05 | 90 | 1012.8 |
| 20260508051025 | 6 | 341 | 0.0 | 0.0 | 0.05 | 0.10 | 0.05 | 90 | 1012.8 |
| 20260508050025 | 6 | 341 | 0.0 | 0.0 | 0.05 | 0.10 | 0.05 | 89 | 1012.8 |
| 20260508045025 | 6 | 310 | 0.0 | 3.2 | 0.00 | 0.10 | 0.05 | 89 | 1012.7 |
| 20260508042025 | 6 | 12 | 8.0 | 19.3 | 0.00 | 0.05 | 0.00 | 85 | 1012.8 |
| 20260508041025 | 6 | 4 | 4.8 | 14.5 | 0.00 | 0.05 | 0.00 | 85 | 1012.5 |
| 20260508040025 | 7 | 8 | 11.3 | 20.9 | 0.00 | 0.05 | 0.00 | 85 | 1012.3 |